| time (UTC) | temp F | wind direction | speed MPH | gust MPH | rain 1hr in | rain 24hr in | rain mn in | humidity % | barometer mb |
| 20260507132937 | 69 | 158 | 3.0 | 6.0 | 0.00 | 0.05 | 0.04 | 67 | 1014.3 |
| 20260507132738 | 68 | 68 | 5.0 | 8.0 | 0.00 | 0.05 | 0.04 | 67 | 1014.4 |
| 20260507132545 | 68 | 180 | 6.0 | 11.0 | 0.00 | 0.05 | 0.04 | 67 | 1014.5 |
| 20260507132338 | 68 | 135 | 7.0 | 9.0 | 0.00 | 0.05 | 0.04 | 66 | 1014.5 |
| 20260507132138 | 69 | 112 | 5.0 | 11.0 | 0.00 | 0.05 | 0.04 | 69 | 1014.6 |
| 20260507131938 | 69 | 135 | 7.0 | 11.0 | 0.00 | 0.05 | 0.04 | 69 | 1014.8 |
| 20260507131737 | 69 | 135 | 6.0 | 8.0 | 0.00 | 0.05 | 0.04 | 69 | 1014.7 |
| 20260507131337 | 69 | 112 | 5.0 | 9.0 | 0.00 | 0.05 | 0.04 | 68 | 1014.8 |
| 20260507130939 | 68 | 90 | 4.0 | 11.0 | 0.00 | 0.05 | 0.04 | 71 | 1014.8 |
| 20260507130737 | 67 | 112 | 4.0 | 7.0 | 0.00 | 0.05 | 0.04 | 70 | 1014.7 |
| 20260507130541 | 67 | 90 | 8.0 | 11.0 | 0.00 | 0.05 | 0.04 | 70 | 1014.8 |
| 20260507130336 | 68 | 158 | 8.0 | 13.0 | 0.00 | 0.05 | 0.04 | 70 | 1014.9 |
| 20260507130137 | 69 | 112 | 8.0 | 11.0 | 0.00 | 0.05 | 0.04 | 71 | 1014.9 |
| 20260507125938 | 69 | 112 | 5.0 | 8.0 | 0.00 | 0.05 | 0.04 | 72 | 1014.9 |
| 20260507125545 | 68 | 180 | 5.0 | 9.0 | 0.00 | 0.05 | 0.04 | 71 | 1014.8 |
| 20260507125338 | 68 | 90 | 4.0 | 8.0 | 0.00 | 0.05 | 0.04 | 72 | 1014.9 |
| 20260507125137 | 67 | 112 | 6.0 | 9.0 | 0.00 | 0.05 | 0.04 | 74 | 1014.7 |
| 20260507124937 | 68 | 112 | 9.0 | 13.0 | 0.00 | 0.05 | 0.04 | 75 | 1014.6 |
| 20260507124737 | 69 | 135 | 6.0 | 9.0 | 0.00 | 0.05 | 0.04 | 74 | 1014.9 |
| 20260507124543 | 69 | 90 | 5.0 | 8.0 | 0.00 | 0.05 | 0.04 | 74 | 1014.8 |
| 20260507124336 | 68 | 158 | 4.0 | 4.0 | 0.00 | 0.05 | 0.04 | 74 | 1015.0 |
| 20260507123939 | 68 | 135 | 6.0 | 9.0 | 0.00 | 0.05 | 0.04 | 75 | 1015.0 |
| 20260507123737 | 69 | 90 | 7.0 | 11.0 | 0.00 | 0.05 | 0.04 | 73 | 1014.8 |
| 20260507123541 | 69 | 90 | 5.0 | 11.0 | 0.00 | 0.05 | 0.04 | 74 | 1015.0 |
| 20260507123139 | 69 | 180 | 4.0 | 11.0 | 0.00 | 0.05 | 0.04 | 71 | 1015.1 |
| 20260507122938 | 68 | 112 | 5.0 | 7.0 | 0.00 | 0.05 | 0.04 | 73 | 1015.0 |
| 20260507122737 | 68 | 112 | 6.0 | 11.0 | 0.00 | 0.05 | 0.04 | 76 | 1015.0 |
| 20260507122543 | 68 | 112 | 9.0 | 11.0 | 0.00 | 0.05 | 0.04 | 74 | 1015.0 |
| 20260507122338 | 69 | 90 | 5.0 | 7.0 | 0.00 | 0.05 | 0.04 | 76 | 1014.9 |
| 20260507122137 | 68 | 90 | 8.0 | 11.0 | 0.00 | 0.05 | 0.04 | 75 | 1015.0 |
| 20260507121938 | 68 | 90 | 4.0 | 8.0 | 0.00 | 0.05 | 0.04 | 76 | 1014.8 |
| 20260507121737 | 67 | 90 | 4.0 | 8.0 | 0.00 | 0.05 | 0.04 | 76 | 1014.8 |
| 20260507121544 | 68 | 90 | 9.0 | 13.0 | 0.00 | 0.05 | 0.04 | 73 | 1015.0 |
| 20260507121337 | 68 | 112 | 5.0 | 9.0 | 0.00 | 0.05 | 0.04 | 75 | 1015.2 |
| 20260507121138 | 68 | 112 | 6.0 | 9.0 | 0.00 | 0.05 | 0.04 | 76 | 1015.2 |
| 20260507120737 | 67 | 90 | 6.0 | 11.0 | 0.00 | 0.05 | 0.04 | 73 | 1015.2 |
| 20260507120541 | 67 | 112 | 8.0 | 11.0 | 0.00 | 0.05 | 0.04 | 75 | 1015.1 |
| 20260507120337 | 67 | 112 | 8.0 | 11.0 | 0.00 | 0.05 | 0.04 | 75 | 1015.1 |
| 20260507120137 | 67 | 112 | 8.0 | 11.0 | 0.00 | 0.05 | 0.04 | 75 | 1015.1 |
| 20260507115939 | 67 | 112 | 4.0 | 7.0 | 0.00 | 0.05 | 0.04 | 75 | 1015.2 |
| 20260507115737 | 67 | 112 | 4.0 | 8.0 | 0.00 | 0.05 | 0.04 | 75 | 1015.4 |
| 20260507115545 | 66 | 112 | 7.0 | 11.0 | 0.00 | 0.05 | 0.04 | 77 | 1015.3 |
| 20260507115337 | 66 | 90 | 4.0 | 7.0 | 0.00 | 0.05 | 0.04 | 78 | 1015.2 |
| 20260507115138 | 66 | 112 | 5.0 | 11.0 | 0.00 | 0.05 | 0.04 | 77 | 1015.3 |
| 20260507114937 | 67 | 135 | 8.0 | 11.0 | 0.00 | 0.05 | 0.04 | 76 | 1015.4 |
| 20260507114544 | 68 | 135 | 7.0 | 9.0 | 0.00 | 0.05 | 0.04 | 73 | 1015.3 |
| 20260507114337 | 68 | 68 | 7.0 | 9.0 | 0.00 | 0.05 | 0.04 | 73 | 1015.3 |
| 20260507114137 | 67 | 112 | 3.0 | 6.0 | 0.00 | 0.05 | 0.04 | 75 | 1015.4 |
| 20260507113941 | 67 | 135 | 5.0 | 11.0 | 0.00 | 0.05 | 0.04 | 74 | 1015.3 |
| 20260507113737 | 67 | 112 | 4.0 | 6.0 | 0.00 | 0.05 | 0.04 | 75 | 1015.3 |
| 20260507113542 | 67 | 112 | 4.0 | 8.0 | 0.00 | 0.05 | 0.04 | 76 | 1015.4 |
| 20260507113337 | 67 | 135 | 5.0 | 7.0 | 0.00 | 0.05 | 0.04 | 76 | 1015.5 |
| 20260507113138 | 67 | 180 | 4.0 | 8.0 | 0.00 | 0.05 | 0.04 | 76 | 1015.6 |
| 20260507112938 | 67 | 112 | 3.0 | 4.0 | 0.00 | 0.05 | 0.04 | 77 | 1015.5 |
| 20260507112738 | 67 | 135 | 5.0 | 8.0 | 0.00 | 0.05 | 0.04 | 78 | 1015.5 |
| 20260507112544 | 67 | 158 | 3.0 | 4.0 | 0.00 | 0.05 | 0.04 | 80 | 1015.7 |
| 20260507112338 | 67 | 112 | 4.0 | 8.0 | 0.00 | 0.05 | 0.04 | 78 | 1015.6 |
| 20260507112138 | 67 | 135 | 4.0 | 4.0 | 0.00 | 0.05 | 0.04 | 80 | 1015.9 |
| 20260507111937 | 67 | 180 | 4.0 | 7.0 | 0.00 | 0.05 | 0.04 | 79 | 1015.7 |
| 20260507111737 | 67 | 112 | 4.0 | 11.0 | 0.00 | 0.05 | 0.04 | 80 | 1015.8 |
| 20260507111543 | 67 | 158 | 4.0 | 7.0 | 0.00 | 0.05 | 0.04 | 79 | 1015.7 |
| 20260507111339 | 67 | 158 | 4.0 | 8.0 | 0.00 | 0.05 | 0.04 | 79 | 1015.8 |
| 20260507110939 | 67 | 135 | 4.0 | 6.0 | 0.00 | 0.05 | 0.04 | 80 | 1015.7 |
| 20260507110737 | 66 | 202 | 4.0 | 7.0 | 0.00 | 0.05 | 0.04 | 81 | 1015.5 |
| 20260507110540 | 66 | 135 | 6.0 | 11.0 | 0.00 | 0.05 | 0.04 | 81 | 1015.8 |
| 20260507110337 | 66 | 90 | 5.0 | 8.0 | 0.00 | 0.05 | 0.04 | 81 | 1015.7 |
| 20260507105738 | 66 | 158 | 2.0 | 4.0 | 0.00 | 0.05 | 0.04 | 83 | 1015.6 |
| 20260507105337 | 66 | 112 | 2.0 | 4.0 | 0.00 | 0.05 | 0.04 | 84 | 1015.7 |
| 20260507105138 | 66 | 135 | 8.0 | 13.0 | 0.00 | 0.05 | 0.04 | 83 | 1015.8 |
| 20260507104937 | 66 | 225 | 5.0 | 8.0 | 0.00 | 0.05 | 0.04 | 83 | 1015.9 |
| 20260507104738 | 67 | 112 | 4.0 | 6.0 | 0.00 | 0.05 | 0.04 | 83 | 1015.8 |
| 20260507104339 | 66 | 135 | 4.0 | 8.0 | 0.00 | 0.05 | 0.04 | 84 | 1016.0 |
| 20260507103941 | 66 | 158 | 5.0 | 8.0 | 0.00 | 0.05 | 0.04 | 84 | 1015.8 |
| 20260507103738 | 66 | 135 | 3.0 | 4.0 | 0.00 | 0.05 | 0.04 | 85 | 1015.8 |
| 20260507103541 | 66 | 112 | 4.0 | 8.0 | 0.00 | 0.05 | 0.04 | 85 | 1015.7 |
| 20260507102937 | 65 | 112 | 4.0 | 11.0 | 0.00 | 0.05 | 0.04 | 85 | 1015.6 |
| 20260507102544 | 65 | 180 | 2.0 | 4.0 | 0.00 | 0.05 | 0.04 | 86 | 1015.7 |
| 20260507102337 | 65 | 112 | 4.0 | 7.0 | 0.00 | 0.05 | 0.04 | 85 | 1015.8 |
| 20260507102138 | 65 | 292 | 4.0 | 6.0 | 0.00 | 0.05 | 0.04 | 85 | 1015.6 |
| 20260507101938 | 65 | 90 | 4.0 | 6.0 | 0.00 | 0.05 | 0.04 | 86 | 1015.7 |
| 20260507101738 | 65 | 112 | 4.0 | 6.0 | 0.00 | 0.05 | 0.04 | 85 | 1015.9 |
| 20260507101545 | 65 | 135 | 4.0 | 6.0 | 0.00 | 0.05 | 0.04 | 86 | 1015.7 |
| 20260507101337 | 65 | 158 | 4.0 | 7.0 | 0.00 | 0.05 | 0.04 | 86 | 1015.7 |
| 20260507101137 | 65 | 202 | 5.0 | 11.0 | 0.00 | 0.05 | 0.04 | 86 | 1015.8 |
| 20260507100738 | 65 | 135 | 6.0 | 8.0 | 0.00 | 0.05 | 0.04 | 85 | 1015.6 |
| 20260507100338 | 65 | 158 | 4.0 | 6.0 | 0.00 | 0.05 | 0.04 | 85 | 1016.0 |
| 20260507100138 | 65 | 180 | 2.0 | 4.0 | 0.00 | 0.05 | 0.04 | 85 | 1015.8 |
| 20260507095937 | 65 | 112 | 4.0 | 8.0 | 0.00 | 0.05 | 0.04 | 85 | 1015.6 |
| 20260507095738 | 65 | 135 | 4.0 | 7.0 | 0.00 | 0.05 | 0.04 | 85 | 1015.5 |
| 20260507095543 | 65 | 135 | 3.0 | 6.0 | 0.00 | 0.05 | 0.04 | 84 | 1015.7 |
| 20260507095336 | 66 | 135 | 4.0 | 7.0 | 0.00 | 0.05 | 0.04 | 84 | 1015.6 |
| 20260507094937 | 66 | 158 | 4.0 | 6.0 | 0.00 | 0.05 | 0.04 | 84 | 1015.7 |
| 20260507094337 | 66 | 112 | 4.0 | 7.0 | 0.00 | 0.05 | 0.04 | 83 | 1015.5 |
| 20260507094139 | 66 | 112 | 4.0 | 6.0 | 0.00 | 0.05 | 0.04 | 83 | 1015.4 |
| 20260507093939 | 67 | 135 | 6.0 | 9.0 | 0.00 | 0.05 | 0.04 | 83 | 1015.3 |
| 20260507093737 | 67 | 135 | 2.0 | 6.0 | 0.00 | 0.05 | 0.04 | 83 | 1015.2 |
| 20260507093540 | 66 | 158 | 5.0 | 8.0 | 0.00 | 0.05 | 0.04 | 83 | 1015.4 |
| 20260507093137 | 66 | 180 | 4.0 | 7.0 | 0.00 | 0.05 | 0.04 | 83 | 1015.5 |
| 20260507092937 | 66 | 180 | 3.0 | 7.0 | 0.00 | 0.05 | 0.04 | 83 | 1015.6 |
| 20260507092739 | 66 | 202 | 4.0 | 6.0 | 0.00 | 0.05 | 0.04 | 84 | 1015.5 |
| 20260507092544 | 66 | 135 | 5.0 | 7.0 | 0.00 | 0.05 | 0.04 | 84 | 1015.4 |
| 20260507092338 | 66 | 158 | 5.0 | 8.0 | 0.00 | 0.05 | 0.04 | 84 | 1015.5 |
| 20260507092138 | 66 | 158 | 4.0 | 8.0 | 0.00 | 0.05 | 0.04 | 84 | 1015.5 |
| 20260507091938 | 66 | 135 | 4.0 | 8.0 | 0.00 | 0.05 | 0.04 | 84 | 1015.5 |
| 20260507091737 | 66 | 158 | 4.0 | 7.0 | 0.00 | 0.05 | 0.04 | 85 | 1015.6 |
| 20260507091544 | 66 | 248 | 6.0 | 11.0 | 0.00 | 0.05 | 0.04 | 85 | 1015.6 |
| 20260507091136 | 65 | 135 | 5.0 | 11.0 | 0.00 | 0.05 | 0.04 | 87 | 1015.5 |
| 20260507090940 | 65 | 112 | 4.0 | 11.0 | 0.00 | 0.05 | 0.04 | 88 | 1015.4 |
| 20260507090737 | 65 | 112 | 2.0 | 4.0 | 0.00 | 0.05 | 0.04 | 89 | 1015.3 |
| 20260507090540 | 65 | 135 | 2.0 | 4.0 | 0.00 | 0.05 | 0.04 | 90 | 1015.3 |
| 20260507090337 | 64 | 202 | 4.0 | 8.0 | 0.00 | 0.05 | 0.04 | 90 | 1015.4 |
| 20260507090137 | 64 | 112 | 6.0 | 8.0 | 0.00 | 0.05 | 0.04 | 90 | 1015.3 |
| 20260507085939 | 64 | 112 | 5.0 | 9.0 | 0.00 | 0.05 | 0.04 | 91 | 1015.4 |
| 20260507085738 | 64 | 112 | 5.0 | 9.0 | 0.00 | 0.05 | 0.04 | 92 | 1015.1 |
| 20260507085543 | 64 | 158 | 3.0 | 4.0 | 0.00 | 0.05 | 0.04 | 92 | 1015.2 |
| 20260507085337 | 64 | 135 | 4.0 | 7.0 | 0.00 | 0.05 | 0.04 | 92 | 1015.3 |
| 20260507085136 | 64 | 135 | 5.0 | 9.0 | 0.00 | 0.05 | 0.04 | 93 | 1015.5 |
| 20260507084736 | 64 | 158 | 4.0 | 7.0 | 0.00 | 0.05 | 0.04 | 93 | 1015.6 |
| 20260507084337 | 63 | 135 | 3.0 | 4.0 | 0.00 | 0.05 | 0.04 | 94 | 1015.4 |
| 20260507084137 | 63 | 135 | 4.0 | 7.0 | 0.00 | 0.05 | 0.04 | 94 | 1015.4 |
| 20260507083939 | 63 | 158 | 2.0 | 4.0 | 0.00 | 0.05 | 0.04 | 94 | 1015.3 |
| 20260507083737 | 64 | 135 | 3.0 | 6.0 | 0.00 | 0.05 | 0.04 | 94 | 1015.1 |
| 20260507083541 | 64 | 112 | 4.0 | 4.0 | 0.00 | 0.05 | 0.04 | 94 | 1015.1 |
| 20260507083337 | 63 | 112 | 4.0 | 8.0 | 0.00 | 0.05 | 0.04 | 94 | 1015.0 |
| 20260507083136 | 63 | 112 | 5.0 | 9.0 | 0.00 | 0.05 | 0.04 | 94 | 1015.1 |
| 20260507082938 | 63 | 135 | 5.0 | 9.0 | 0.00 | 0.05 | 0.04 | 94 | 1015.0 |
| 20260507082736 | 63 | 135 | 8.0 | 11.0 | 0.00 | 0.05 | 0.04 | 95 | 1015.0 |
| 20260507082544 | 63 | 135 | 4.0 | 6.0 | 0.00 | 0.05 | 0.04 | 95 | 1015.0 |
| 20260507082336 | 63 | 158 | 3.0 | 4.0 | 0.00 | 0.05 | 0.04 | 95 | 1014.9 |
| 20260507081937 | 63 | 112 | 4.0 | 6.0 | 0.00 | 0.05 | 0.04 | 95 | 1015.0 |
| 20260507081737 | 63 | 112 | 4.0 | 6.0 | 0.00 | 0.05 | 0.04 | 95 | 1015.1 |
| 20260507081544 | 63 | 112 | 6.0 | 11.0 | 0.00 | 0.05 | 0.04 | 95 | 1015.0 |
| 20260507081337 | 63 | 68 | 4.0 | 6.0 | 0.00 | 0.05 | 0.04 | 95 | 1015.0 |
| 20260507081137 | 63 | 68 | 4.0 | 6.0 | 0.00 | 0.05 | 0.04 | 95 | 1015.0 |
| 20260507080939 | 63 | 112 | 6.0 | 8.0 | 0.00 | 0.05 | 0.04 | 95 | 1015.3 |
| 20260507080737 | 63 | 90 | 4.0 | 7.0 | 0.00 | 0.05 | 0.04 | 95 | 1015.1 |
| 20260507080337 | 63 | 135 | 4.0 | 7.0 | 0.00 | 0.05 | 0.04 | 95 | 1015.2 |
| 20260507075937 | 63 | 68 | 4.0 | 8.0 | 0.00 | 0.05 | 0.04 | 95 | 1015.4 |
| 20260507075543 | 63 | 112 | 4.0 | 6.0 | 0.00 | 0.05 | 0.04 | 95 | 1015.4 |
| 20260507075337 | 63 | 135 | 4.0 | 9.0 | 0.00 | 0.05 | 0.04 | 95 | 1015.4 |
| 20260507074737 | 63 | 68 | 4.0 | 7.0 | 0.00 | 0.05 | 0.04 | 95 | 1015.3 |
| 20260507074138 | 63 | 68 | 4.0 | 7.0 | 0.00 | 0.05 | 0.04 | 95 | 1014.8 |
| 20260507073939 | 63 | 90 | 6.0 | 8.0 | 0.00 | 0.05 | 0.04 | 95 | 1015.0 |
| 20260507073137 | 63 | 68 | 5.0 | 9.0 | 0.00 | 0.05 | 0.04 | 95 | 1014.9 |
| 20260507072937 | 63 | 45 | 5.0 | 9.0 | 0.00 | 0.05 | 0.04 | 95 | 1015.1 |
| 20260507072544 | 63 | 68 | 3.0 | 4.0 | 0.00 | 0.05 | 0.04 | 95 | 1014.9 |
| 20260507072136 | 63 | 68 | 4.0 | 7.0 | 0.00 | 0.05 | 0.04 | 95 | 1015.0 |
| 20260507071938 | 63 | 68 | 7.0 | 9.0 | 0.00 | 0.05 | 0.04 | 95 | 1015.0 |
| 20260507071737 | 63 | 68 | 4.0 | 7.0 | 0.00 | 0.05 | 0.04 | 95 | 1015.1 |
| 20260507071545 | 63 | 45 | 4.0 | 6.0 | 0.00 | 0.05 | 0.04 | 95 | 1015.2 |
| 20260507071337 | 63 | 22 | 3.0 | 4.0 | 0.00 | 0.05 | 0.04 | 95 | 1015.0 |
| 20260507071138 | 63 | 45 | 7.0 | 8.0 | 0.00 | 0.05 | 0.04 | 95 | 1015.3 |
| 20260507070737 | 62 | 45 | 3.0 | 4.0 | 0.00 | 0.05 | 0.04 | 95 | 1015.3 |
| 20260507070541 | 62 | 0 | 3.0 | 4.0 | 0.00 | 0.05 | 0.04 | 95 | 1015.6 |
| 20260507070337 | 63 | 22 | 3.0 | 6.0 | 0.00 | 0.05 | 0.04 | 95 | 1015.6 |
| 20260507070138 | 63 | 45 | 2.0 | 2.0 | 0.00 | 0.05 | 0.04 | 95 | 1015.8 |
| 20260507065937 | 63 | 338 | 0.0 | 2.0 | 0.00 | 0.05 | 0.04 | 95 | 1015.7 |
| 20260507065544 | 63 | 22 | 2.0 | 4.0 | 0.00 | 0.05 | 0.04 | 95 | 1016.0 |
| 20260507065138 | 63 | 338 | 0.0 | 0.0 | 0.00 | 0.05 | 0.04 | 95 | 1016.1 |
| 20260507064937 | 63 | 315 | 1.0 | 2.0 | 0.00 | 0.05 | 0.04 | 95 | 1015.9 |
| 20260507064737 | 63 | 112 | 0.0 | 2.0 | 0.00 | 0.05 | 0.04 | 95 | 1016.2 |
| 20260507064544 | 63 | 22 | 1.0 | 2.0 | 0.00 | 0.05 | 0.04 | 95 | 1016.4 |
| 20260507064337 | 62 | 90 | 3.0 | 6.0 | 0.00 | 0.05 | 0.04 | 95 | 1016.1 |
| 20260507063941 | 62 | 68 | 4.0 | 7.0 | 0.00 | 0.05 | 0.04 | 95 | 1015.6 |
| 20260507063738 | 62 | 0 | 4.0 | 7.0 | 0.00 | 0.05 | 0.04 | 95 | 1015.5 |
| 20260507063541 | 62 | 45 | 8.0 | 11.0 | 0.00 | 0.05 | 0.04 | 95 | 1015.4 |
| 20260507063138 | 62 | 45 | 4.0 | 8.0 | 0.00 | 0.05 | 0.04 | 95 | 1015.3 |
| 20260507062938 | 62 | 68 | 5.0 | 7.0 | 0.00 | 0.05 | 0.04 | 95 | 1015.1 |
| 20260507062737 | 62 | 0 | 4.0 | 8.0 | 0.00 | 0.05 | 0.04 | 95 | 1015.1 |
| 20260507062337 | 62 | 68 | 4.0 | 7.0 | 0.00 | 0.05 | 0.04 | 95 | 1015.0 |
| 20260507062137 | 62 | 0 | 4.0 | 8.0 | 0.00 | 0.05 | 0.04 | 95 | 1015.0 |
| 20260507061938 | 62 | 45 | 4.0 | 9.0 | 0.00 | 0.05 | 0.04 | 95 | 1014.8 |
| 20260507061737 | 62 | 45 | 5.0 | 8.0 | 0.00 | 0.05 | 0.04 | 95 | 1015.1 |
| 20260507061544 | 62 | 338 | 3.0 | 4.0 | 0.00 | 0.05 | 0.04 | 95 | 1015.8 |
| 20260507061338 | 62 | 22 | 2.0 | 2.0 | 0.00 | 0.05 | 0.04 | 95 | 1016.1 |
| 20260507061136 | 63 | 315 | 0.0 | 2.0 | 0.00 | 0.05 | 0.04 | 95 | 1016.5 |
| 20260507060939 | 63 | 338 | 0.0 | 2.0 | 0.00 | 0.05 | 0.04 | 95 | 1016.3 |
| 20260507060737 | 62 | 22 | 1.0 | 2.0 | 0.00 | 0.05 | 0.04 | 95 | 1016.3 |
| 20260507060541 | 62 | 22 | 1.0 | 2.0 | 0.00 | 0.05 | 0.04 | 95 | 1016.3 |
| 20260507060337 | 62 | 22 | 1.0 | 2.0 | 0.00 | 0.05 | 0.04 | 95 | 1016.3 |
| 20260507060202 | 62 | 22 | 1.0 | 2.0 | 0.00 | 0.05 | 0.04 | 95 | 1016.3 |
| 20260507055937 | 62 | 315 | 2.0 | 4.0 | 0.00 | 0.05 | 0.04 | 95 | 1016.2 |
| 20260507055738 | 62 | 315 | 1.0 | 2.0 | 0.00 | 0.05 | 0.04 | 95 | 1016.4 |
| 20260507055544 | 62 | 315 | 1.0 | 2.0 | 0.00 | 0.05 | 0.04 | 95 | 1016.5 |
| 20260507055336 | 62 | 315 | 1.0 | 2.0 | 0.00 | 0.05 | 0.04 | 95 | 1016.4 |
| 20260507055137 | 62 | 315 | 2.0 | 4.0 | 0.00 | 0.05 | 0.04 | 95 | 1016.4 |
| 20260507054938 | 62 | 315 | 1.0 | 2.0 | 0.00 | 0.05 | 0.04 | 95 | 1016.5 |
| 20260507054737 | 62 | 315 | 0.0 | 2.0 | 0.00 | 0.05 | 0.04 | 95 | 1016.3 |
| 20260507054543 | 62 | 315 | 0.0 | 0.0 | 0.00 | 0.05 | 0.04 | 95 | 1016.2 |
| 20260507054140 | 62 | 338 | 0.0 | 0.0 | 0.00 | 0.05 | 0.04 | 95 | 1016.2 |
| 20260507053338 | 61 | 22 | 2.0 | 4.0 | 0.00 | 0.05 | 0.04 | 95 | 1016.3 |
| 20260507053138 | 61 | 45 | 1.0 | 2.0 | 0.00 | 0.05 | 0.04 | 95 | 1016.2 |
| 20260507052937 | 61 | 315 | 1.0 | 2.0 | 0.00 | 0.05 | 0.04 | 95 | 1016.1 |
| 20260507052737 | 61 | 315 | 2.0 | 4.0 | 0.00 | 0.05 | 0.04 | 95 | 1016.1 |
| 20260507052542 | 61 | 338 | 0.0 | 0.0 | 0.00 | 0.05 | 0.04 | 95 | 1016.2 |
| 20260507052337 | 61 | 338 | 0.0 | 0.0 | 0.00 | 0.05 | 0.04 | 95 | 1016.1 |
| 20260507052139 | 61 | 338 | 0.0 | 2.0 | 0.00 | 0.05 | 0.04 | 95 | 1016.2 |
| 20260507051937 | 61 | 0 | 1.0 | 2.0 | 0.00 | 0.05 | 0.04 | 95 | 1016.2 |
| 20260507051737 | 61 | 315 | 1.0 | 4.0 | 0.00 | 0.05 | 0.04 | 95 | 1016.2 |
| 20260507051544 | 61 | 315 | 2.0 | 2.0 | 0.00 | 0.05 | 0.04 | 95 | 1016.2 |
| 20260507051338 | 61 | 315 | 2.0 | 4.0 | 0.00 | 0.05 | 0.04 | 95 | 1016.2 |
| 20260507051138 | 61 | 292 | 2.0 | 4.0 | 0.00 | 0.05 | 0.04 | 95 | 1016.2 |
| 20260507050940 | 61 | 292 | 2.0 | 4.0 | 0.00 | 0.05 | 0.04 | 95 | 1016.1 |
| 20260507050738 | 61 | 292 | 2.0 | 4.0 | 0.00 | 0.05 | 0.04 | 95 | 1016.4 |
| 20260507050543 | 61 | 338 | 2.0 | 2.0 | 0.00 | 0.05 | 0.04 | 95 | 1016.4 |
| 20260507050338 | 61 | 315 | 2.0 | 4.0 | 0.00 | 0.05 | 0.04 | 95 | 1016.2 |
| 20260507050139 | 61 | 315 | 2.0 | 4.0 | 0.00 | 0.05 | 0.04 | 95 | 1016.4 |
| 20260507045938 | 61 | 0 | 2.0 | 4.0 | 0.00 | 0.05 | 0.04 | 95 | 1016.1 |
| 20260507045544 | 61 | 315 | 3.0 | 4.0 | 0.00 | 0.05 | 0.04 | 95 | 1016.3 |
| 20260507045337 | 61 | 338 | 4.0 | 6.0 | 0.00 | 0.05 | 0.04 | 95 | 1016.2 |
| 20260507044938 | 61 | 315 | 2.0 | 4.0 | 0.00 | 0.05 | 0.04 | 95 | 1016.1 |
| 20260507044737 | 61 | 315 | 2.0 | 4.0 | 0.00 | 0.05 | 0.04 | 95 | 1016.3 |
| 20260507044549 | 61 | 292 | 3.0 | 4.0 | 0.00 | 0.05 | 0.04 | 95 | 1016.2 |
| 20260507044337 | 61 | 315 | 3.0 | 6.0 | 0.00 | 0.05 | 0.04 | 95 | 1016.3 |
| 20260507043942 | 61 | 338 | 4.0 | 7.0 | 0.00 | 0.05 | 0.04 | 95 | 1016.2 |
| 20260507043546 | 61 | 270 | 2.0 | 2.0 | 0.00 | 0.05 | 0.04 | 95 | 1016.2 |
| 20260507043337 | 61 | 292 | 3.0 | 7.0 | 0.00 | 0.05 | 0.04 | 95 | 1016.3 |
| 20260507043138 | 61 | 315 | 2.0 | 2.0 | 0.00 | 0.05 | 0.04 | 95 | 1016.1 |
| 20260507042939 | 61 | 292 | 4.0 | 7.0 | 0.00 | 0.05 | 0.04 | 95 | 1016.1 |
| 20260507042738 | 61 | 315 | 2.0 | 4.0 | 0.00 | 0.05 | 0.04 | 95 | 1015.9 |
| 20260507042547 | 61 | 292 | 2.0 | 4.0 | 0.00 | 0.05 | 0.04 | 95 | 1015.8 |
| 20260507042138 | 61 | 315 | 2.0 | 4.0 | 0.00 | 0.05 | 0.04 | 95 | 1015.5 |
| 20260507041939 | 61 | 315 | 2.0 | 6.0 | 0.00 | 0.05 | 0.04 | 95 | 1015.4 |
| 20260507041739 | 61 | 315 | 3.0 | 6.0 | 0.00 | 0.05 | 0.04 | 95 | 1015.5 |
| 20260507041544 | 61 | 315 | 2.0 | 4.0 | 0.00 | 0.05 | 0.04 | 95 | 1015.3 |
| 20260507041339 | 61 | 315 | 4.0 | 6.0 | 0.00 | 0.05 | 0.04 | 95 | 1015.3 |
| 20260507041139 | 61 | 315 | 3.0 | 4.0 | 0.00 | 0.05 | 0.04 | 95 | 1015.3 |
| 20260507040939 | 61 | 315 | 3.0 | 6.0 | 0.00 | 0.05 | 0.04 | 95 | 1015.2 |
| 20260507040738 | 61 | 315 | 3.0 | 6.0 | 0.00 | 0.05 | 0.04 | 95 | 1015.2 |
| 20260507040541 | 61 | 315 | 4.0 | 4.0 | 0.00 | 0.05 | 0.04 | 95 | 1015.1 |
| 20260507040337 | 61 | 292 | 2.0 | 4.0 | 0.00 | 0.05 | 0.04 | 95 | 1015.1 |
| 20260507040137 | 61 | 315 | 2.0 | 4.0 | 0.00 | 0.05 | 0.04 | 95 | 1015.1 |
| 20260507035938 | 61 | 292 | 2.0 | 4.0 | 0.00 | 0.05 | 0.04 | 95 | 1015.0 |
| 20260507035736 | 61 | 315 | 4.0 | 7.0 | 0.00 | 0.05 | 0.04 | 95 | 1014.9 |
| 20260507035545 | 61 | 315 | 4.0 | 6.0 | 0.00 | 0.05 | 0.04 | 95 | 1014.9 |
| 20260507035337 | 61 | 292 | 4.0 | 4.0 | 0.00 | 0.05 | 0.04 | 95 | 1015.2 |
| 20260507035137 | 61 | 270 | 4.0 | 7.0 | 0.00 | 0.05 | 0.04 | 95 | 1015.2 |
| 20260507034938 | 61 | 270 | 4.0 | 7.0 | 0.00 | 0.05 | 0.04 | 95 | 1015.1 |
| 20260507034737 | 61 | 292 | 4.0 | 6.0 | 0.00 | 0.05 | 0.04 | 95 | 1015.0 |
| 20260507034544 | 61 | 292 | 4.0 | 6.0 | 0.00 | 0.05 | 0.04 | 95 | 1015.0 |
| 20260507034338 | 61 | 338 | 2.0 | 2.0 | 0.00 | 0.05 | 0.04 | 95 | 1014.8 |
| 20260507034138 | 61 | 315 | 2.0 | 4.0 | 0.00 | 0.05 | 0.04 | 95 | 1014.9 |
| 20260507033939 | 61 | 292 | 1.0 | 2.0 | 0.00 | 0.05 | 0.04 | 95 | 1014.6 |
| 20260507033737 | 61 | 338 | 0.0 | 0.0 | 0.00 | 0.05 | 0.04 | 95 | 1014.6 |
| 20260507033338 | 61 | 338 | 0.0 | 2.0 | 0.00 | 0.05 | 0.04 | 95 | 1014.6 |
| 20260507032938 | 61 | 0 | 2.0 | 4.0 | 0.00 | 0.05 | 0.04 | 95 | 1014.5 |
| 20260507032737 | 61 | 0 | 2.0 | 4.0 | 0.01 | 0.05 | 0.04 | 95 | 1014.5 |
| 20260507032337 | 61 | 338 | 0.0 | 0.0 | 0.01 | 0.05 | 0.04 | 95 | 1014.7 |
| 20260507032138 | 61 | 338 | 0.0 | 2.0 | 0.01 | 0.05 | 0.04 | 95 | 1014.9 |
| 20260507031939 | 61 | 315 | 0.0 | 0.0 | 0.01 | 0.05 | 0.04 | 95 | 1014.8 |
| 20260507031737 | 61 | 292 | 0.0 | 0.0 | 0.01 | 0.05 | 0.04 | 95 | 1015.0 |
| 20260507031337 | 61 | 292 | 2.0 | 2.0 | 0.01 | 0.05 | 0.04 | 95 | 1015.3 |
| 20260507030940 | 61 | 292 | 2.0 | 2.0 | 0.01 | 0.05 | 0.04 | 95 | 1015.3 |
| 20260507030737 | 61 | 292 | 0.0 | 0.0 | 0.01 | 0.05 | 0.04 | 95 | 1015.1 |
| 20260507030540 | 61 | 292 | 0.0 | 0.0 | 0.01 | 0.05 | 0.04 | 95 | 1015.1 |
| 20260507030337 | 61 | 292 | 0.0 | 0.0 | 0.01 | 0.05 | 0.04 | 95 | 1015.1 |
| 20260507030136 | 61 | 292 | 0.0 | 0.0 | 0.01 | 0.05 | 0.04 | 95 | 1014.9 |
| 20260507025736 | 61 | 292 | 0.0 | 0.0 | 0.01 | 0.05 | 0.04 | 95 | 1014.9 |
| 20260507025138 | 61 | 338 | 0.0 | 2.0 | 0.01 | 0.05 | 0.04 | 95 | 1014.9 |
| 20260507024938 | 61 | 315 | 1.0 | 2.0 | 0.01 | 0.05 | 0.04 | 95 | 1014.7 |
| 20260507024543 | 61 | 315 | 1.0 | 2.0 | 0.01 | 0.05 | 0.04 | 95 | 1014.7 |
| 20260507024337 | 61 | 338 | 2.0 | 2.0 | 0.01 | 0.05 | 0.04 | 95 | 1014.5 |
| 20260507024137 | 61 | 315 | 2.0 | 4.0 | 0.01 | 0.05 | 0.04 | 95 | 1014.6 |
| 20260507023939 | 61 | 292 | 2.0 | 4.0 | 0.01 | 0.05 | 0.04 | 95 | 1014.9 |
| 20260507023738 | 61 | 315 | 2.0 | 4.0 | 0.01 | 0.05 | 0.04 | 95 | 1015.1 |
| 20260507023542 | 61 | 315 | 2.0 | 2.0 | 0.01 | 0.05 | 0.04 | 95 | 1014.9 |
| 20260507023337 | 61 | 315 | 1.0 | 2.0 | 0.01 | 0.05 | 0.04 | 95 | 1015.0 |
| 20260507023137 | 61 | 338 | 1.0 | 2.0 | 0.01 | 0.05 | 0.04 | 95 | 1015.1 |
| 20260507022938 | 61 | 315 | 1.0 | 2.0 | 0.00 | 0.04 | 0.03 | 95 | 1015.0 |
| 20260507022739 | 61 | 0 | 1.0 | 2.0 | 0.00 | 0.04 | 0.03 | 95 | 1015.0 |
| 20260507022340 | 61 | 315 | 1.0 | 2.0 | 0.00 | 0.04 | 0.03 | 95 | 1015.1 |
| 20260507022136 | 61 | 315 | 0.0 | 2.0 | 0.00 | 0.04 | 0.03 | 95 | 1015.3 |
| 20260507021936 | 61 | 270 | 0.0 | 0.0 | 0.00 | 0.04 | 0.03 | 95 | 1015.1 |
| 20260507021743 | 61 | 270 | 0.0 | 0.0 | 0.00 | 0.04 | 0.03 | 95 | 1015.1 |
| 20260507021543 | 61 | 270 | 0.0 | 0.0 | 0.00 | 0.04 | 0.03 | 95 | 1015.3 |
| 20260507021338 | 61 | 270 | 0.0 | 0.0 | 0.00 | 0.04 | 0.03 | 95 | 1015.2 |
| 20260507020941 | 61 | 270 | 2.0 | 2.0 | 0.00 | 0.04 | 0.03 | 95 | 1015.2 |
| 20260507020737 | 61 | 270 | 2.0 | 4.0 | 0.00 | 0.04 | 0.03 | 95 | 1015.4 |
| 20260507020541 | 61 | 248 | 2.0 | 2.0 | 0.00 | 0.04 | 0.03 | 95 | 1015.5 |
| 20260507020338 | 61 | 248 | 2.0 | 4.0 | 0.00 | 0.04 | 0.03 | 95 | 1015.4 |
| 20260507015937 | 61 | 248 | 2.0 | 2.0 | 0.00 | 0.04 | 0.03 | 95 | 1015.2 |
| 20260507015736 | 61 | 270 | 1.0 | 2.0 | 0.00 | 0.04 | 0.03 | 95 | 1015.3 |
| 20260507015545 | 61 | 248 | 0.0 | 0.0 | 0.00 | 0.04 | 0.03 | 95 | 1015.4 |
| 20260507015338 | 61 | 248 | 1.0 | 2.0 | 0.00 | 0.04 | 0.03 | 95 | 1015.3 |
| 20260507015137 | 61 | 270 | 2.0 | 4.0 | 0.00 | 0.04 | 0.03 | 95 | 1015.3 |
| 20260507014938 | 61 | 225 | 1.0 | 2.0 | 0.00 | 0.04 | 0.03 | 95 | 1015.4 |
| 20260507014736 | 61 | 248 | 1.0 | 2.0 | 0.00 | 0.04 | 0.03 | 95 | 1015.4 |
| 20260507014543 | 61 | 248 | 1.0 | 2.0 | 0.00 | 0.04 | 0.03 | 95 | 1015.4 |
| 20260507014339 | 61 | 225 | 2.0 | 4.0 | 0.00 | 0.04 | 0.03 | 95 | 1015.3 |
| 20260507014139 | 61 | 225 | 2.0 | 4.0 | 0.01 | 0.04 | 0.03 | 95 | 1015.3 |
| 20260507013939 | 61 | 225 | 3.0 | 4.0 | 0.01 | 0.04 | 0.03 | 95 | 1015.5 |
| 20260507013738 | 61 | 225 | 2.0 | 2.0 | 0.01 | 0.04 | 0.03 | 95 | 1015.3 |
| 20260507013547 | 61 | 202 | 1.0 | 2.0 | 0.01 | 0.04 | 0.03 | 95 | 1015.2 |
| 20260507013339 | 61 | 180 | 2.0 | 2.0 | 0.01 | 0.04 | 0.03 | 95 | 1015.1 |
| 20260507012937 | 61 | 202 | 1.0 | 2.0 | 0.02 | 0.04 | 0.03 | 95 | 1014.9 |
| 20260507012738 | 61 | 270 | 0.0 | 2.0 | 0.02 | 0.04 | 0.03 | 95 | 1014.8 |
| 20260507012137 | 61 | 315 | 2.0 | 4.0 | 0.02 | 0.04 | 0.03 | 95 | 1014.3 |
| 20260507011938 | 61 | 315 | 3.0 | 7.0 | 0.02 | 0.04 | 0.03 | 95 | 1014.1 |
| 20260507011737 | 61 | 315 | 2.0 | 4.0 | 0.02 | 0.04 | 0.03 | 95 | 1013.9 |
| 20260507011543 | 61 | 315 | 3.0 | 4.0 | 0.02 | 0.04 | 0.03 | 95 | 1014.1 |
| 20260507011338 | 61 | 315 | 2.0 | 4.0 | 0.02 | 0.04 | 0.03 | 95 | 1014.0 |
| 20260507011138 | 61 | 315 | 2.0 | 4.0 | 0.02 | 0.04 | 0.03 | 95 | 1013.9 |
| 20260507010738 | 61 | 315 | 2.0 | 2.0 | 0.02 | 0.04 | 0.03 | 95 | 1013.9 |
| 20260507010338 | 62 | 338 | 4.0 | 6.0 | 0.02 | 0.04 | 0.03 | 95 | 1013.9 |
| 20260507010138 | 62 | 338 | 2.0 | 4.0 | 0.02 | 0.04 | 0.03 | 95 | 1013.9 |
| 20260507005542 | 62 | 315 | 2.0 | 4.0 | 0.02 | 0.04 | 0.03 | 95 | 1013.8 |
| 20260507005337 | 62 | 315 | 3.0 | 4.0 | 0.02 | 0.04 | 0.03 | 95 | 1013.7 |
| 20260507005137 | 62 | 45 | 2.0 | 4.0 | 0.02 | 0.04 | 0.03 | 94 | 1013.6 |
| 20260507004937 | 62 | 315 | 2.0 | 2.0 | 0.02 | 0.04 | 0.03 | 95 | 1013.8 |
| 20260507004736 | 62 | 292 | 2.0 | 4.0 | 0.02 | 0.04 | 0.03 | 94 | 1013.6 |
| 20260507004543 | 62 | 338 | 3.0 | 6.0 | 0.02 | 0.04 | 0.03 | 94 | 1013.5 |
| 20260507004138 | 62 | 45 | 4.0 | 7.0 | 0.01 | 0.03 | 0.02 | 94 | 1013.2 |
| 20260507003939 | 62 | 68 | 6.0 | 9.0 | 0.01 | 0.03 | 0.02 | 94 | 1013.1 |
| 20260507003738 | 62 | 45 | 6.0 | 9.0 | 0.01 | 0.03 | 0.02 | 94 | 1012.9 |
| 20260507003540 | 62 | 45 | 4.0 | 6.0 | 0.01 | 0.03 | 0.02 | 94 | 1013.8 |
| 20260507003340 | 62 | 338 | 2.0 | 4.0 | 0.00 | 0.02 | 0.01 | 94 | 1014.2 |
| 20260507003137 | 62 | 338 | 2.0 | 4.0 | 0.00 | 0.02 | 0.01 | 94 | 1014.8 |
| 20260507002938 | 62 | 315 | 2.0 | 2.0 | 0.00 | 0.02 | 0.01 | 94 | 1015.0 |
| 20260507002544 | 62 | 292 | 1.0 | 2.0 | 0.00 | 0.02 | 0.01 | 94 | 1015.0 |
| 20260507002337 | 62 | 270 | 2.0 | 2.0 | 0.00 | 0.02 | 0.01 | 94 | 1015.0 |
| 20260507002138 | 62 | 270 | 2.0 | 4.0 | 0.00 | 0.02 | 0.01 | 94 | 1015.1 |
| 20260507001737 | 62 | 315 | 3.0 | 4.0 | 0.00 | 0.02 | 0.01 | 94 | 1014.8 |
| 20260507001339 | 62 | 315 | 1.0 | 2.0 | 0.00 | 0.02 | 0.01 | 94 | 1014.8 |
| 20260507001139 | 62 | 315 | 0.0 | 0.0 | 0.00 | 0.02 | 0.01 | 94 | 1014.9 |
| 20260507000940 | 62 | 315 | 0.0 | 0.0 | 0.00 | 0.02 | 0.01 | 94 | 1014.8 |
| 20260507000739 | 62 | 338 | 0.0 | 2.0 | 0.00 | 0.02 | 0.01 | 94 | 1014.7 |
| 20260507000542 | 62 | 270 | 2.0 | 2.0 | 0.00 | 0.02 | 0.01 | 94 | 1014.8 |
| 20260507000337 | 62 | 270 | 2.0 | 2.0 | 0.00 | 0.02 | 0.01 | 94 | 1015.0 |
| 20260507000139 | 62 | 270 | 2.0 | 2.0 | 0.00 | 0.02 | 0.01 | 94 | 1015.0 |
| 20260506235936 | 62 | 292 | 2.0 | 2.0 | 0.00 | 0.02 | 0.01 | 94 | 1014.7 |
| 20260506235544 | 62 | 315 | 1.0 | 2.0 | 0.00 | 0.02 | 0.01 | 94 | 1014.6 |
| 20260506235139 | 62 | 315 | 0.0 | 0.0 | 0.00 | 0.02 | 0.01 | 94 | 1014.7 |
| 20260506234937 | 62 | 315 | 0.0 | 0.0 | 0.00 | 0.02 | 0.01 | 94 | 1014.7 |
| 20260506234740 | 62 | 315 | 0.0 | 0.0 | 0.00 | 0.02 | 0.01 | 94 | 1014.6 |
| 20260506234544 | 62 | 315 | 0.0 | 2.0 | 0.00 | 0.02 | 0.01 | 94 | 1014.6 |
| 20260506234339 | 62 | 292 | 0.0 | 2.0 | 0.00 | 0.02 | 0.01 | 94 | 1014.5 |
| 20260506234139 | 62 | 315 | 1.0 | 2.0 | 0.00 | 0.02 | 0.01 | 94 | 1014.5 |
| 20260506233940 | 62 | 338 | 0.0 | 2.0 | 0.00 | 0.02 | 0.01 | 94 | 1014.5 |
| 20260506233739 | 62 | 0 | 1.0 | 2.0 | 0.00 | 0.02 | 0.01 | 94 | 1014.3 |
| 20260506233542 | 62 | 0 | 0.0 | 2.0 | 0.00 | 0.02 | 0.01 | 94 | 1014.3 |
| 20260506233337 | 62 | 0 | 0.0 | 2.0 | 0.00 | 0.02 | 0.01 | 94 | 1014.6 |
| 20260506233136 | 62 | 315 | 0.0 | 0.0 | 0.00 | 0.02 | 0.01 | 94 | 1014.5 |
| 20260506232938 | 62 | 315 | 0.0 | 2.0 | 0.00 | 0.02 | 0.01 | 94 | 1014.6 |
| 20260506232738 | 62 | 315 | 1.0 | 2.0 | 0.00 | 0.02 | 0.01 | 94 | 1014.7 |
| 20260506232546 | 62 | 315 | 0.0 | 0.0 | 0.00 | 0.02 | 0.01 | 94 | 1014.8 |
| 20260506232337 | 62 | 315 | 0.0 | 0.0 | 0.00 | 0.02 | 0.01 | 94 | 1014.8 |
| 20260506232137 | 62 | 315 | 0.0 | 0.0 | 0.00 | 0.02 | 0.01 | 94 | 1014.7 |
| 20260506231938 | 62 | 315 | 1.0 | 2.0 | 0.00 | 0.02 | 0.01 | 94 | 1014.8 |
| 20260506231737 | 62 | 338 | 1.0 | 2.0 | 0.01 | 0.02 | 0.01 | 93 | 1014.9 |
| 20260506231543 | 62 | 292 | 2.0 | 2.0 | 0.01 | 0.02 | 0.01 | 93 | 1014.7 |
| 20260506231338 | 62 | 292 | 1.0 | 2.0 | 0.01 | 0.02 | 0.01 | 93 | 1014.8 |
| 20260506231136 | 62 | 0 | 1.0 | 2.0 | 0.01 | 0.02 | 0.01 | 93 | 1014.6 |
| 20260506230940 | 62 | 22 | 1.0 | 2.0 | 0.01 | 0.02 | 0.01 | 93 | 1014.6 |
| 20260506230737 | 62 | 0 | 0.0 | 2.0 | 0.01 | 0.02 | 0.01 | 93 | 1014.7 |
| 20260506230337 | 62 | 315 | 1.0 | 2.0 | 0.01 | 0.02 | 0.01 | 93 | 1014.6 |
| 20260506230137 | 62 | 22 | 0.0 | 2.0 | 0.01 | 0.02 | 0.01 | 93 | 1014.5 |
| 20260506225938 | 62 | 338 | 2.0 | 4.0 | 0.01 | 0.02 | 0.01 | 93 | 1014.7 |
| 20260506225737 | 62 | 45 | 2.0 | 4.0 | 0.01 | 0.02 | 0.01 | 93 | 1014.5 |
| 20260506225544 | 62 | 22 | 2.0 | 4.0 | 0.01 | 0.02 | 0.01 | 93 | 1014.5 |
| 20260506225342 | 62 | 22 | 2.0 | 4.0 | 0.01 | 0.02 | 0.01 | 93 | 1014.4 |
| 20260506225137 | 62 | 45 | 2.0 | 2.0 | 0.01 | 0.02 | 0.01 | 93 | 1014.5 |
| 20260506224939 | 62 | 22 | 1.0 | 2.0 | 0.01 | 0.02 | 0.01 | 93 | 1014.4 |
| 20260506224738 | 62 | 0 | 1.0 | 2.0 | 0.01 | 0.02 | 0.01 | 93 | 1014.7 |
| 20260506224338 | 62 | 0 | 2.0 | 4.0 | 0.01 | 0.02 | 0.01 | 93 | 1014.8 |
| 20260506224138 | 62 | 338 | 1.0 | 2.0 | 0.01 | 0.02 | 0.01 | 93 | 1014.7 |
| 20260506223941 | 62 | 315 | 2.0 | 2.0 | 0.01 | 0.02 | 0.01 | 93 | 1014.6 |
| 20260506223738 | 62 | 292 | 2.0 | 4.0 | 0.01 | 0.02 | 0.01 | 93 | 1014.7 |
| 20260506223541 | 62 | 315 | 2.0 | 2.0 | 0.01 | 0.02 | 0.01 | 93 | 1014.7 |
| 20260506223338 | 62 | 315 | 2.0 | 4.0 | 0.02 | 0.02 | 0.01 | 93 | 1014.6 |
| 20260506222937 | 62 | 315 | 2.0 | 2.0 | 0.02 | 0.02 | 0.01 | 93 | 1014.6 |
| 20260506222738 | 62 | 292 | 2.0 | 4.0 | 0.02 | 0.02 | 0.01 | 93 | 1014.5 |
| 20260506222543 | 62 | 338 | 1.0 | 2.0 | 0.02 | 0.02 | 0.01 | 93 | 1014.7 |
| 20260506222338 | 62 | 338 | 2.0 | 4.0 | 0.02 | 0.02 | 0.01 | 93 | 1014.7 |
| 20260506222137 | 62 | 0 | 2.0 | 4.0 | 0.02 | 0.02 | 0.01 | 93 | 1014.5 |
| 20260506221938 | 62 | 22 | 2.0 | 4.0 | 0.01 | 0.01 | 0.00 | 93 | 1014.3 |
| 20260506221738 | 62 | 338 | 2.0 | 4.0 | 0.01 | 0.01 | 0.00 | 93 | 1014.6 |
| 20260506221544 | 62 | 292 | 2.0 | 4.0 | 0.01 | 0.01 | 0.00 | 92 | 1014.5 |
| 20260506221338 | 62 | 22 | 2.0 | 4.0 | 0.01 | 0.01 | 0.00 | 92 | 1014.6 |
| 20260506220940 | 62 | 0 | 1.0 | 4.0 | 0.01 | 0.01 | 0.00 | 92 | 1015.0 |
| 20260506220542 | 62 | 315 | 3.0 | 4.0 | 0.01 | 0.01 | 0.00 | 92 | 1014.8 |
| 20260506220338 | 62 | 315 | 3.0 | 6.0 | 0.01 | 0.01 | 0.00 | 92 | 1014.8 |
| 20260506220223 | 62 | 292 | 2.0 | 4.0 | 0.01 | 0.01 | 0.01 | 92 | 1014.8 |
| 20260506215739 | 62 | 315 | 3.0 | 6.0 | 0.01 | 0.01 | 0.01 | 92 | 1014.7 |
| 20260506215544 | 62 | 292 | 3.0 | 4.0 | 0.01 | 0.01 | 0.01 | 92 | 1014.8 |
| 20260506215338 | 62 | 292 | 2.0 | 4.0 | 0.01 | 0.01 | 0.01 | 92 | 1014.7 |
| 20260506215138 | 62 | 315 | 2.0 | 4.0 | 0.01 | 0.01 | 0.01 | 92 | 1014.7 |
| 20260506214937 | 62 | 315 | 2.0 | 4.0 | 0.01 | 0.01 | 0.01 | 92 | 1014.7 |
| 20260506214738 | 62 | 0 | 3.0 | 6.0 | 0.01 | 0.01 | 0.01 | 92 | 1014.7 |
| 20260506214544 | 62 | 315 | 4.0 | 7.0 | 0.01 | 0.01 | 0.01 | 92 | 1014.7 |
| 20260506214138 | 62 | 338 | 4.0 | 7.0 | 0.01 | 0.01 | 0.01 | 92 | 1014.7 |
| 20260506213940 | 62 | 270 | 2.0 | 4.0 | 0.01 | 0.01 | 0.01 | 92 | 1014.7 |
| 20260506213736 | 62 | 315 | 2.0 | 4.0 | 0.01 | 0.01 | 0.01 | 92 | 1014.7 |
| 20260506213542 | 62 | 315 | 3.0 | 4.0 | 0.00 | 0.00 | 0.00 | 92 | 1014.7 |
| 20260506213338 | 62 | 315 | 2.0 | 4.0 | 0.00 | 0.00 | 0.00 | 91 | 1014.7 |
| 20260506213138 | 62 | 315 | 3.0 | 4.0 | 0.00 | 0.00 | 0.00 | 91 | 1014.6 |
| 20260506212938 | 62 | 315 | 4.0 | 6.0 | 0.00 | 0.00 | 0.00 | 91 | 1014.6 |
| 20260506212739 | 62 | 315 | 2.0 | 2.0 | 0.00 | 0.00 | 0.00 | 91 | 1014.6 |
| 20260506212545 | 62 | 338 | 2.0 | 4.0 | 0.00 | 0.00 | 0.00 | 91 | 1014.6 |
| 20260506212338 | 62 | 315 | 2.0 | 4.0 | 0.00 | 0.00 | 0.00 | 91 | 1014.6 |
| 20260506212139 | 62 | 292 | 3.0 | 6.0 | 0.00 | 0.00 | 0.00 | 91 | 1014.8 |
| 20260506211940 | 62 | 315 | 2.0 | 4.0 | 0.00 | 0.00 | 0.00 | 91 | 1014.5 |
| 20260506211737 | 62 | 315 | 2.0 | 4.0 | 0.00 | 0.00 | 0.00 | 91 | 1014.6 |
| 20260506211544 | 62 | 315 | 2.0 | 4.0 | 0.00 | 0.00 | 0.00 | 91 | 1014.4 |
| 20260506211338 | 62 | 315 | 3.0 | 4.0 | 0.00 | 0.00 | 0.00 | 91 | 1014.3 |
| 20260506211139 | 62 | 315 | 2.0 | 4.0 | 0.00 | 0.00 | 0.00 | 91 | 1014.5 |
| 20260506210941 | 62 | 315 | 3.0 | 4.0 | 0.00 | 0.00 | 0.00 | 91 | 1014.4 |
| 20260506210337 | 62 | 338 | 2.0 | 4.0 | 0.00 | 0.00 | 0.00 | 91 | 1014.7 |
| 20260506210138 | 62 | 315 | 2.0 | 2.0 | 0.00 | 0.00 | 0.00 | 91 | 1014.5 |
| 20260506205939 | 62 | 315 | 2.0 | 4.0 | 0.00 | 0.00 | 0.00 | 90 | 1014.6 |
| 20260506205737 | 62 | 338 | 2.0 | 4.0 | 0.00 | 0.00 | 0.00 | 90 | 1014.8 |
| 20260506205544 | 62 | 315 | 2.0 | 4.0 | 0.00 | 0.00 | 0.00 | 90 | 1014.5 |
| 20260506205337 | 62 | 315 | 3.0 | 4.0 | 0.00 | 0.00 | 0.00 | 90 | 1014.5 |
| 20260506204737 | 63 | 292 | 2.0 | 4.0 | 0.00 | 0.00 | 0.00 | 90 | 1014.7 |
| 20260506204136 | 63 | 315 | 3.0 | 4.0 | 0.00 | 0.00 | 0.00 | 90 | 1014.6 |
| 20260506203738 | 62 | 338 | 3.0 | 4.0 | 0.00 | 0.00 | 0.00 | 90 | 1014.7 |
| 20260506203540 | 62 | 315 | 2.0 | 4.0 | 0.00 | 0.00 | 0.00 | 90 | 1014.7 |
| 20260506203337 | 62 | 338 | 2.0 | 4.0 | 0.00 | 0.00 | 0.00 | 90 | 1014.6 |
| 20260506202939 | 62 | 315 | 2.0 | 4.0 | 0.00 | 0.00 | 0.00 | 90 | 1014.6 |
| 20260506202738 | 62 | 292 | 1.0 | 2.0 | 0.00 | 0.00 | 0.00 | 90 | 1014.8 |
| 20260506202543 | 62 | 315 | 2.0 | 2.0 | 0.00 | 0.00 | 0.00 | 90 | 1014.8 |
| 20260506201939 | 62 | 292 | 2.0 | 2.0 | 0.00 | 0.00 | 0.00 | 90 | 1014.6 |
| 20260506201738 | 62 | 270 | 2.0 | 2.0 | 0.00 | 0.00 | 0.00 | 90 | 1014.6 |
| 20260506201545 | 62 | 292 | 1.0 | 2.0 | 0.00 | 0.00 | 0.00 | 90 | 1014.7 |
| 20260506201337 | 62 | 315 | 2.0 | 4.0 | 0.00 | 0.00 | 0.00 | 89 | 1014.6 |
| 20260506201138 | 62 | 315 | 2.0 | 2.0 | 0.00 | 0.00 | 0.00 | 89 | 1014.7 |
| 20260506200739 | 63 | 315 | 2.0 | 2.0 | 0.00 | 0.00 | 0.00 | 89 | 1014.6 |
| 20260506200542 | 63 | 315 | 1.0 | 2.0 | 0.00 | 0.00 | 0.00 | 89 | 1014.3 |
| 20260506200338 | 63 | 315 | 2.0 | 4.0 | 0.00 | 0.00 | 0.00 | 89 | 1014.5 |
| 20260506200138 | 63 | 315 | 1.0 | 2.0 | 0.00 | 0.00 | 0.00 | 89 | 1014.4 |
| 20260506195941 | 63 | 315 | 1.0 | 2.0 | 0.00 | 0.00 | 0.00 | 89 | 1014.4 |
| 20260506195739 | 63 | 315 | 0.0 | 2.0 | 0.00 | 0.00 | 0.00 | 89 | 1014.4 |
| 20260506195545 | 63 | 315 | 1.0 | 2.0 | 0.00 | 0.00 | 0.00 | 89 | 1014.4 |
| 20260506195338 | 63 | 315 | 1.0 | 2.0 | 0.00 | 0.00 | 0.00 | 89 | 1014.4 |
| 20260506195138 | 63 | 22 | 2.0 | 4.0 | 0.00 | 0.00 | 0.00 | 89 | 1014.4 |
| 20260506194939 | 63 | 315 | 0.0 | 2.0 | 0.00 | 0.00 | 0.00 | 89 | 1014.4 |
| 20260506194739 | 63 | 315 | 2.0 | 2.0 | 0.00 | 0.00 | 0.00 | 89 | 1014.4 |
| 20260506194546 | 63 | 315 | 1.0 | 2.0 | 0.00 | 0.00 | 0.00 | 88 | 1014.3 |
| 20260506194339 | 63 | 338 | 0.0 | 2.0 | 0.00 | 0.00 | 0.00 | 88 | 1014.2 |
| 20260506193941 | 63 | 292 | 1.0 | 2.0 | 0.00 | 0.00 | 0.00 | 88 | 1014.2 |
| 20260506193738 | 63 | 315 | 2.0 | 4.0 | 0.00 | 0.00 | 0.00 | 88 | 1014.1 |
| 20260506193542 | 63 | 315 | 0.0 | 2.0 | 0.00 | 0.00 | 0.00 | 88 | 1014.2 |
| 20260506193337 | 63 | 315 | 1.0 | 2.0 | 0.00 | 0.00 | 0.00 | 88 | 1013.9 |
| 20260506193138 | 63 | 338 | 1.0 | 2.0 | 0.00 | 0.00 | 0.00 | 88 | 1014.1 |
| 20260506192939 | 63 | 0 | 0.0 | 2.0 | 0.00 | 0.00 | 0.00 | 88 | 1014.2 |
| 20260506192738 | 63 | 315 | 0.0 | 2.0 | 0.00 | 0.00 | 0.00 | 88 | 1014.1 |
| 20260506192548 | 63 | 338 | 1.0 | 2.0 | 0.00 | 0.00 | 0.00 | 88 | 1014.0 |
| 20260506192339 | 63 | 338 | 2.0 | 4.0 | 0.00 | 0.00 | 0.00 | 88 | 1014.0 |
| 20260506192139 | 63 | 338 | 2.0 | 4.0 | 0.00 | 0.00 | 0.00 | 88 | 1014.1 |
| 20260506191738 | 63 | 338 | 2.0 | 2.0 | 0.00 | 0.00 | 0.00 | 88 | 1014.1 |
| 20260506191546 | 64 | 22 | 1.0 | 2.0 | 0.00 | 0.00 | 0.00 | 88 | 1013.9 |
| 20260506191140 | 64 | 22 | 2.0 | 4.0 | 0.00 | 0.00 | 0.00 | 88 | 1014.0 |
| 20260506190943 | 64 | 22 | 2.0 | 4.0 | 0.00 | 0.00 | 0.00 | 88 | 1014.0 |
| 20260506190741 | 64 | 22 | 2.0 | 4.0 | 0.00 | 0.00 | 0.00 | 87 | 1014.0 |
| 20260506190543 | 64 | 338 | 2.0 | 4.0 | 0.00 | 0.00 | 0.00 | 87 | 1014.0 |
| 20260506190339 | 64 | 338 | 1.0 | 2.0 | 0.00 | 0.00 | 0.00 | 87 | 1013.9 |
| 20260506190139 | 64 | 338 | 2.0 | 2.0 | 0.00 | 0.00 | 0.00 | 87 | 1013.9 |
| 20260506185939 | 64 | 22 | 2.0 | 2.0 | 0.00 | 0.00 | 0.00 | 87 | 1014.1 |
| 20260506185740 | 64 | 45 | 2.0 | 4.0 | 0.00 | 0.00 | 0.00 | 87 | 1014.0 |
| 20260506185545 | 64 | 338 | 1.0 | 2.0 | 0.00 | 0.00 | 0.00 | 87 | 1013.8 |
| 20260506185139 | 64 | 45 | 2.0 | 4.0 | 0.00 | 0.00 | 0.00 | 87 | 1013.8 |
| 20260506184940 | 64 | 22 | 0.0 | 2.0 | 0.00 | 0.00 | 0.00 | 87 | 1013.8 |
| 20260506184738 | 64 | 292 | 1.0 | 2.0 | 0.00 | 0.00 | 0.00 | 87 | 1013.7 |
| 20260506184543 | 64 | 22 | 2.0 | 2.0 | 0.00 | 0.00 | 0.00 | 87 | 1013.8 |
| 20260506184340 | 64 | 45 | 2.0 | 2.0 | 0.00 | 0.00 | 0.00 | 87 | 1013.6 |
| 20260506184138 | 64 | 22 | 1.0 | 2.0 | 0.00 | 0.00 | 0.00 | 87 | 1013.7 |
| 20260506183944 | 64 | 22 | 2.0 | 4.0 | 0.00 | 0.00 | 0.00 | 87 | 1013.8 |
| 20260506183739 | 64 | 0 | 2.0 | 4.0 | 0.00 | 0.00 | 0.00 | 87 | 1013.8 |
| 20260506183542 | 64 | 45 | 2.0 | 2.0 | 0.00 | 0.00 | 0.00 | 87 | 1013.7 |
| 20260506183138 | 64 | 45 | 1.0 | 2.0 | 0.00 | 0.00 | 0.00 | 87 | 1013.7 |
| 20260506182940 | 64 | 22 | 1.0 | 2.0 | 0.00 | 0.00 | 0.00 | 87 | 1013.7 |
| 20260506182741 | 64 | 22 | 1.0 | 2.0 | 0.00 | 0.00 | 0.00 | 87 | 1013.8 |
| 20260506182543 | 64 | 45 | 3.0 | 4.0 | 0.00 | 0.00 | 0.00 | 87 | 1013.7 |
| 20260506182339 | 64 | 22 | 2.0 | 2.0 | 0.00 | 0.00 | 0.00 | 87 | 1013.8 |
| 20260506182137 | 64 | 22 | 1.0 | 2.0 | 0.00 | 0.00 | 0.00 | 87 | 1013.7 |
| 20260506181939 | 64 | 22 | 1.0 | 2.0 | 0.00 | 0.00 | 0.00 | 87 | 1013.7 |
| 20260506181740 | 64 | 22 | 1.0 | 2.0 | 0.00 | 0.00 | 0.00 | 87 | 1013.9 |
| 20260506181545 | 64 | 45 | 1.0 | 2.0 | 0.00 | 0.00 | 0.00 | 87 | 1013.7 |
| 20260506181338 | 64 | 68 | 1.0 | 2.0 | 0.00 | 0.00 | 0.00 | 87 | 1013.7 |
| 20260506181137 | 64 | 45 | 1.0 | 2.0 | 0.00 | 0.00 | 0.00 | 86 | 1013.8 |
| 20260506180337 | 64 | 22 | 3.0 | 4.0 | 0.00 | 0.00 | 0.00 | 86 | 1013.7 |
| 20260506180137 | 64 | 22 | 3.0 | 4.0 | 0.00 | 0.00 | 0.00 | 86 | 1013.8 |
| 20260506175938 | 64 | 45 | 3.0 | 4.0 | 0.00 | 0.00 | 0.00 | 86 | 1013.8 |
| 20260506175738 | 64 | 22 | 2.0 | 4.0 | 0.00 | 0.00 | 0.00 | 86 | 1013.8 |
| 20260506175542 | 64 | 45 | 2.0 | 2.0 | 0.00 | 0.00 | 0.00 | 86 | 1013.9 |
| 20260506175338 | 64 | 22 | 2.0 | 2.0 | 0.00 | 0.00 | 0.00 | 86 | 1013.7 |
| 20260506174737 | 64 | 45 | 2.0 | 2.0 | 0.00 | 0.00 | 0.00 | 86 | 1013.7 |
| 20260506174338 | 64 | 45 | 2.0 | 2.0 | 0.00 | 0.00 | 0.00 | 86 | 1013.7 |
| 20260506174139 | 64 | 112 | 0.0 | 0.0 | 0.00 | 0.00 | 0.00 | 86 | 1013.8 |
| 20260506173942 | 64 | 0 | 1.0 | 2.0 | 0.00 | 0.00 | 0.00 | 86 | 1013.9 |
| 20260506173140 | 64 | 90 | 2.0 | 2.0 | 0.00 | 0.00 | 0.00 | 85 | 1013.7 |
| 20260506172947 | 64 | 68 | 2.0 | 4.0 | 0.00 | 0.00 | 0.00 | 85 | 1013.9 |
| 20260506172739 | 64 | 45 | 2.0 | 4.0 | 0.00 | 0.00 | 0.00 | 85 | 1013.8 |
| 20260506172137 | 64 | 45 | 2.0 | 2.0 | 0.00 | 0.00 | 0.00 | 85 | 1013.9 |
| 20260506171939 | 64 | 90 | 1.0 | 2.0 | 0.00 | 0.00 | 0.00 | 85 | 1013.7 |
| 20260506171738 | 64 | 112 | 1.0 | 2.0 | 0.00 | 0.00 | 0.00 | 85 | 1013.7 |
| 20260506171544 | 64 | 90 | 2.0 | 2.0 | 0.00 | 0.00 | 0.00 | 85 | 1013.9 |
| 20260506171339 | 64 | 90 | 2.0 | 2.0 | 0.00 | 0.00 | 0.00 | 85 | 1014.0 |
| 20260506171138 | 64 | 135 | 2.0 | 2.0 | 0.00 | 0.00 | 0.00 | 85 | 1013.8 |
| 20260506170941 | 65 | 112 | 2.0 | 2.0 | 0.00 | 0.00 | 0.00 | 85 | 1013.8 |
| 20260506170737 | 65 | 112 | 0.0 | 2.0 | 0.00 | 0.00 | 0.00 | 85 | 1013.9 |
| 20260506170542 | 65 | 135 | 2.0 | 4.0 | 0.00 | 0.00 | 0.00 | 85 | 1013.8 |
| 20260506170338 | 65 | 112 | 2.0 | 4.0 | 0.00 | 0.00 | 0.00 | 85 | 1013.8 |
| 20260506170138 | 65 | 112 | 2.0 | 2.0 | 0.00 | 0.00 | 0.00 | 85 | 1013.8 |
| 20260506165940 | 65 | 135 | 2.0 | 2.0 | 0.00 | 0.00 | 0.00 | 85 | 1013.9 |
| 20260506165542 | 65 | 112 | 2.0 | 4.0 | 0.00 | 0.00 | 0.00 | 85 | 1013.8 |
| 20260506165337 | 64 | 112 | 2.0 | 2.0 | 0.00 | 0.00 | 0.00 | 85 | 1013.7 |
| 20260506165138 | 65 | 135 | 3.0 | 4.0 | 0.00 | 0.00 | 0.00 | 85 | 1013.8 |
| 20260506164940 | 65 | 135 | 2.0 | 4.0 | 0.00 | 0.00 | 0.00 | 85 | 1013.9 |
| 20260506164737 | 64 | 90 | 3.0 | 4.0 | 0.00 | 0.00 | 0.00 | 85 | 1013.6 |
| 20260506164338 | 65 | 90 | 3.0 | 6.0 | 0.00 | 0.00 | 0.00 | 85 | 1013.5 |
| 20260506163738 | 65 | 90 | 4.0 | 6.0 | 0.00 | 0.00 | 0.00 | 85 | 1013.6 |
| 20260506163337 | 65 | 112 | 3.0 | 6.0 | 0.00 | 0.00 | 0.00 | 84 | 1013.8 |
| 20260506163139 | 65 | 68 | 4.0 | 7.0 | 0.00 | 0.00 | 0.00 | 84 | 1013.8 |
| 20260506162738 | 65 | 112 | 4.0 | 4.0 | 0.00 | 0.00 | 0.00 | 84 | 1013.6 |
| 20260506162543 | 65 | 112 | 3.0 | 4.0 | 0.00 | 0.00 | 0.00 | 84 | 1013.7 |
| 20260506162338 | 65 | 112 | 2.0 | 4.0 | 0.00 | 0.00 | 0.00 | 84 | 1013.8 |
| 20260506162137 | 65 | 135 | 2.0 | 2.0 | 0.00 | 0.00 | 0.00 | 84 | 1013.9 |
| 20260506161939 | 65 | 90 | 3.0 | 4.0 | 0.00 | 0.00 | 0.00 | 84 | 1013.8 |
| 20260506161736 | 65 | 112 | 2.0 | 4.0 | 0.00 | 0.00 | 0.00 | 84 | 1013.8 |
| 20260506161339 | 65 | 248 | 2.0 | 4.0 | 0.00 | 0.00 | 0.00 | 84 | 1013.8 |
| 20260506161137 | 65 | 135 | 2.0 | 4.0 | 0.00 | 0.00 | 0.00 | 84 | 1013.8 |
| 20260506160737 | 65 | 68 | 5.0 | 7.0 | 0.00 | 0.00 | 0.00 | 84 | 1013.8 |
| 20260506160540 | 65 | 112 | 5.0 | 7.0 | 0.00 | 0.00 | 0.00 | 84 | 1013.7 |
| 20260506160339 | 65 | 112 | 4.0 | 4.0 | 0.00 | 0.00 | 0.00 | 84 | 1013.8 |
| 20260506155939 | 65 | 90 | 4.0 | 7.0 | 0.00 | 0.00 | 0.00 | 84 | 1013.7 |
| 20260506155338 | 65 | 112 | 4.0 | 7.0 | 0.00 | 0.00 | 0.00 | 84 | 1013.8 |
| 20260506155138 | 65 | 90 | 2.0 | 4.0 | 0.00 | 0.00 | 0.00 | 84 | 1013.7 |
| 20260506154940 | 65 | 112 | 5.0 | 8.0 | 0.00 | 0.00 | 0.00 | 83 | 1013.8 |
| 20260506154739 | 65 | 90 | 4.0 | 7.0 | 0.00 | 0.00 | 0.00 | 84 | 1013.7 |
| 20260506154339 | 65 | 90 | 4.0 | 7.0 | 0.00 | 0.00 | 0.00 | 84 | 1013.8 |
| 20260506154137 | 65 | 135 | 5.0 | 7.0 | 0.00 | 0.00 | 0.00 | 83 | 1013.9 |
| 20260506153942 | 65 | 90 | 5.0 | 8.0 | 0.00 | 0.00 | 0.00 | 83 | 1013.9 |
| 20260506153738 | 65 | 112 | 3.0 | 7.0 | 0.00 | 0.00 | 0.00 | 83 | 1013.8 |
| 20260506153541 | 65 | 135 | 4.0 | 7.0 | 0.00 | 0.00 | 0.00 | 83 | 1013.6 |
| 20260506152939 | 66 | 90 | 4.0 | 7.0 | 0.00 | 0.00 | 0.00 | 83 | 1013.8 |
| 20260506152737 | 66 | 135 | 4.0 | 7.0 | 0.00 | 0.00 | 0.00 | 82 | 1013.8 |
| 20260506152544 | 66 | 68 | 2.0 | 4.0 | 0.00 | 0.00 | 0.00 | 83 | 1013.8 |
| 20260506152339 | 66 | 90 | 6.0 | 9.0 | 0.00 | 0.00 | 0.00 | 82 | 1013.8 |
| 20260506152137 | 66 | 112 | 2.0 | 4.0 | 0.00 | 0.00 | 0.00 | 82 | 1013.8 |
| 20260506151941 | 66 | 112 | 6.0 | 8.0 | 0.00 | 0.00 | 0.00 | 82 | 1013.8 |
| 20260506151739 | 66 | 135 | 4.0 | 7.0 | 0.00 | 0.00 | 0.00 | 82 | 1013.6 |
| 20260506151544 | 66 | 135 | 5.0 | 8.0 | 0.00 | 0.00 | 0.00 | 81 | 1013.7 |
| 20260506150941 | 67 | 135 | 3.0 | 6.0 | 0.00 | 0.00 | 0.00 | 81 | 1013.9 |
| 20260506150737 | 66 | 135 | 4.0 | 8.0 | 0.00 | 0.00 | 0.00 | 82 | 1013.9 |
| 20260506150540 | 66 | 112 | 5.0 | 8.0 | 0.00 | 0.00 | 0.00 | 82 | 1013.9 |
| 20260506150338 | 67 | 112 | 6.0 | 11.0 | 0.00 | 0.00 | 0.00 | 81 | 1013.8 |
| 20260506150138 | 67 | 90 | 7.0 | 11.0 | 0.00 | 0.00 | 0.00 | 79 | 1013.9 |
| 20260506145738 | 68 | 112 | 4.0 | 6.0 | 0.00 | 0.00 | 0.00 | 80 | 1013.8 |
| 20260506145543 | 68 | 90 | 5.0 | 8.0 | 0.00 | 0.00 | 0.00 | 79 | 1013.9 |
| 20260506145337 | 67 | 135 | 2.0 | 6.0 | 0.00 | 0.00 | 0.00 | 80 | 1013.8 |
| 20260506145137 | 67 | 90 | 4.0 | 6.0 | 0.00 | 0.00 | 0.00 | 81 | 1013.7 |
| 20260506144940 | 67 | 90 | 6.0 | 9.0 | 0.00 | 0.00 | 0.00 | 80 | 1013.6 |
| 20260506144737 | 67 | 112 | 8.0 | 14.0 | 0.00 | 0.00 | 0.00 | 80 | 1013.7 |
| 20260506144545 | 67 | 112 | 7.0 | 11.0 | 0.00 | 0.00 | 0.00 | 80 | 1013.7 |
| 20260506144337 | 68 | 112 | 5.0 | 9.0 | 0.00 | 0.00 | 0.00 | 79 | 1013.9 |
| 20260506144137 | 68 | 90 | 6.0 | 8.0 | 0.00 | 0.00 | 0.00 | 79 | 1013.7 |
| 20260506143940 | 68 | 112 | 4.0 | 8.0 | 0.00 | 0.00 | 0.00 | 78 | 1014.0 |
| 20260506143738 | 68 | 90 | 2.0 | 4.0 | 0.00 | 0.00 | 0.00 | 79 | 1013.9 |
| 20260506143539 | 68 | 90 | 5.0 | 9.0 | 0.00 | 0.00 | 0.00 | 79 | 1014.0 |
| 20260506143336 | 68 | 135 | 3.0 | 6.0 | 0.00 | 0.00 | 0.00 | 80 | 1013.8 |
| 20260506143138 | 68 | 158 | 6.0 | 8.0 | 0.00 | 0.00 | 0.00 | 80 | 1013.9 |
| 20260506142938 | 68 | 90 | 5.0 | 8.0 | 0.00 | 0.00 | 0.00 | 80 | 1013.9 |
| 20260506142737 | 68 | 135 | 4.0 | 6.0 | 0.00 | 0.00 | 0.00 | 79 | 1013.9 |
| 20260506142337 | 68 | 90 | 6.0 | 8.0 | 0.00 | 0.00 | 0.00 | 79 | 1013.8 |
| 20260506142136 | 67 | 158 | 4.0 | 6.0 | 0.00 | 0.00 | 0.00 | 79 | 1013.8 |
| 20260506141940 | 67 | 68 | 5.0 | 8.0 | 0.00 | 0.00 | 0.00 | 80 | 1013.9 |
| 20260506141737 | 68 | 112 | 7.0 | 11.0 | 0.00 | 0.00 | 0.00 | 79 | 1013.9 |
| 20260506141543 | 68 | 90 | 5.0 | 8.0 | 0.00 | 0.00 | 0.00 | 78 | 1013.9 |
| 20260506141337 | 68 | 90 | 4.0 | 8.0 | 0.00 | 0.00 | 0.00 | 79 | 1013.9 |
| 20260506140738 | 69 | 90 | 7.0 | 9.0 | 0.00 | 0.00 | 0.00 | 77 | 1013.8 |
| 20260506140338 | 69 | 135 | 5.0 | 7.0 | 0.00 | 0.00 | 0.00 | 76 | 1013.6 |
| 20260506140136 | 69 | 112 | 5.0 | 8.0 | 0.00 | 0.00 | 0.00 | 77 | 1013.6 |
| 20260506135938 | 69 | 112 | 6.0 | 9.0 | 0.00 | 0.00 | 0.00 | 75 | 1013.6 |
| 20260506135736 | 69 | 68 | 7.0 | 11.0 | 0.00 | 0.00 | 0.00 | 77 | 1013.6 |
| 20260506135544 | 69 | 90 | 4.0 | 9.0 | 0.00 | 0.00 | 0.00 | 76 | 1013.6 |
| 20260506135337 | 69 | 112 | 4.0 | 8.0 | 0.00 | 0.00 | 0.00 | 76 | 1013.7 |
| 20260506135138 | 69 | 90 | 5.0 | 7.0 | 0.00 | 0.00 | 0.00 | 77 | 1013.6 |
| 20260506134940 | 69 | 68 | 3.0 | 6.0 | 0.00 | 0.00 | 0.00 | 77 | 1013.7 |
| 20260506134737 | 68 | 68 | 5.0 | 8.0 | 0.00 | 0.00 | 0.00 | 77 | 1013.7 |
| 20260506134542 | 68 | 45 | 5.0 | 8.0 | 0.00 | 0.00 | 0.00 | 78 | 1013.8 |
| 20260506134338 | 68 | 135 | 5.0 | 8.0 | 0.00 | 0.00 | 0.00 | 79 | 1013.9 |
| 20260506133737 | 69 | 112 | 4.0 | 7.0 | 0.00 | 0.00 | 0.00 | 76 | 1013.9 |
| 20260506133541 | 69 | 68 | 4.0 | 6.0 | 0.00 | 0.00 | 0.00 | 76 | 1014.0 |
| 20260506133338 | 69 | 135 | 4.0 | 8.0 | 0.00 | 0.00 | 0.00 | 77 | 1013.8 |